When you browse on this site, cookies collect data to enhance your experience and personalize the content and advertising you see.
Visit our Privacy Policy to learn more. By continuing to use the site, you agree to this use of cookies and data.
  • In Österreich
  • Länderverzeichnis
  • Für 7 Tage
  • Wassertemperatur
  • Satellitenkarten
  • Wetterkarte
  • News
  • Widgets
  • user-avatar
    Anmelden

    Stündliche Wetter Mongu

    Heute, 20 Januar, Sonntag

    Zeit Temperatur Niederschläge Wind Luftdruck Luftfeuchtigkeit
    00:00 +23°C° 0.3 mm 2 m/S 673 mmHg 89%
    01:00 +21°C° 0.3 mm 2 m/S 673 mmHg 90%
    02:00 +21°C° 0 mm 3 m/S 673 mmHg 91%
    03:00 +21°C° 0 mm 3 m/S 673 mmHg 90%
    04:00 +20°C° 0 mm 3 m/S 673 mmHg 90%
    05:00 +20°C° 0 mm 3 m/S 673 mmHg 90%
    06:00 +20°C° 0 mm 3 m/S 673 mmHg 88%
    07:00 +21°C° 0 mm 3 m/S 674 mmHg 85%
    08:00 +22°C° 0 mm 3 m/S 675 mmHg 82%
    09:00 +25°C° 0.2 mm 3 m/S 675 mmHg 74%
    10:00 +26°C° 0.2 mm 2 m/S 675 mmHg 67%
    11:00 +28°C° 0.2 mm 2 m/S 675 mmHg 60%
    12:00 +30°C° 0.6 mm 2 m/S 675 mmHg 55%
    13:00 +31°C° 0.6 mm 1 m/S 675 mmHg 51%
    14:00 +33°C° 0.6 mm 1 m/S 674 mmHg 46%
    15:00 +32°C° 0 mm 1 m/S 674 mmHg 47%
    16:00 +32°C° 0 mm 1 m/S 674 mmHg 48%
    17:00 +31°C° 0 mm 1 m/S 674 mmHg 49%
    18:00 +29°C° 0.6 mm 2 m/S 674 mmHg 59%
    19:00 +27°C° 0.6 mm 2 m/S 674 mmHg 69%
    20:00 +25°C° 0.6 mm 3 m/S 674 mmHg 79%
    21:00 +24°C° 0.7 mm 3 m/S 674 mmHg 82%
    22:00 +23°C° 0.7 mm 2 m/S 675 mmHg 85%
    23:00 +23°C° 0.7 mm 2 m/S 675 mmHg 88%

    Morgen, 21 Januar, Montag

    Zeit Temperatur Niederschläge Wind Luftdruck Luftfeuchtigkeit
    00:00 +23°C° 0.1 mm 2 m/S 675 mmHg 89%
    01:00 +21°C° 0.1 mm 2 m/S 674 mmHg 91%
    02:00 +22°C° 0.1 mm 1 m/S 674 mmHg 92%
    03:00 +22°C° 0.3 mm 1 m/S 674 mmHg 91%
    04:00 +22°C° 0.3 mm 1 m/S 674 mmHg 90%
    05:00 +22°C° 0.3 mm 1 m/S 674 mmHg 89%
    06:00 +23°C° 0.1 mm 1 m/S 675 mmHg 88%
    07:00 +23°C° 0.1 mm 2 m/S 675 mmHg 86%
    08:00 +24°C° 0.1 mm 2 m/S 676 mmHg 84%
    09:00 +26°C° 0.1 mm 2 m/S 676 mmHg 74%
    10:00 +27°C° 0.1 mm 2 m/S 676 mmHg 65%
    11:00 +29°C° 0.1 mm 2 m/S 676 mmHg 56%
    12:00 +30°C° 0 mm 2 m/S 676 mmHg 53%
    13:00 +31°C° 0 mm 2 m/S 675 mmHg 50%
    14:00 +32°C° 0 mm 2 m/S 674 mmHg 48%
    15:00 +31°C° 0.4 mm 2 m/S 674 mmHg 50%
    16:00 +30°C° 0.4 mm 2 m/S 673 mmHg 53%
    17:00 +30°C° 0.4 mm 2 m/S 672 mmHg 56%
    18:00 +28°C° 0.3 mm 2 m/S 672 mmHg 63%
    19:00 +26°C° 0.3 mm 2 m/S 673 mmHg 70%
    20:00 +24°C° 0.3 mm 2 m/S 673 mmHg 76%
    21:00 +24°C° 0 mm 2 m/S 673 mmHg 78%
    22:00 +23°C° 0 mm 2 m/S 674 mmHg 80%
    23:00 +23°C° 0 mm 2 m/S 674 mmHg 82%

    übermorgen, 22 Januar, Dienstag

    Zeit Temperatur Niederschläge Wind Luftdruck Luftfeuchtigkeit
    00:00 +21°C° 0 mm 2 m/S 674 mmHg 84%
    01:00 +21°C° 0 mm 2 m/S 673 mmHg 86%
    02:00 +21°C° 0 mm 2 m/S 673 mmHg 88%
    03:00 +20°C° 0 mm 2 m/S 673 mmHg 89%
    04:00 +20°C° 0 mm 2 m/S 673 mmHg 91%
    05:00 +19°C° 0 mm 2 m/S 672 mmHg 92%
    06:00 +21°C° 0 mm 2 m/S 673 mmHg 87%
    07:00 +23°C° 0 mm 2 m/S 674 mmHg 82%
    08:00 +24°C° 0 mm 2 m/S 674 mmHg 78%
    09:00 +26°C° 0 mm 3 m/S 675 mmHg 68%
    10:00 +28°C° 0 mm 3 m/S 675 mmHg 58%
    11:00 +30°C° 0 mm 3 m/S 675 mmHg 48%
    12:00 +31°C° 0 mm 3 m/S 675 mmHg 44%
    13:00 +33°C° 0 mm 3 m/S 674 mmHg 41%
    14:00 +34°C° 0 mm 3 m/S 673 mmHg 38%
    15:00 +33°C° 0 mm 3 m/S 672 mmHg 38%
    16:00 +32°C° 0 mm 2 m/S 672 mmHg 39%
    17:00 +32°C° 0 mm 2 m/S 671 mmHg 39%
    18:00 +30°C° 0 mm 2 m/S 671 mmHg 45%
    19:00 +28°C° 0 mm 2 m/S 671 mmHg 52%
    20:00 +26°C° 0 mm 1 m/S 672 mmHg 58%
    21:00 +25°C° 0 mm 1 m/S 672 mmHg 63%
    22:00 +24°C° 0 mm 1 m/S 672 mmHg 68%
    23:00 +23°C° 0 mm 1 m/S 672 mmHg 73%

    23 Januar, Mittwoch

    Zeit Temperatur Niederschläge Wind Luftdruck Luftfeuchtigkeit
    00:00 +23°C° 0 mm 1 m/S 672 mmHg 77%
    01:00 +22°C° 0 mm 1 m/S 671 mmHg 82%
    02:00 +22°C° 0 mm 1 m/S 671 mmHg 86%
    03:00 +21°C° 0 mm 1 m/S 671 mmHg 88%
    04:00 +19°C° 0 mm 0 m/S 671 mmHg 89%
    05:00 +19°C° 0 mm 0 m/S 671 mmHg 91%
    06:00 +20°C° 0 mm 0 m/S 671 mmHg 85%
    07:00 +23°C° 0 mm 1 m/S 672 mmHg 80%
    08:00 +25°C° 0 mm 1 m/S 673 mmHg 75%
    09:00 +28°C° 0 mm 1 m/S 674 mmHg 64%
    10:00 +29°C° 0 mm 0 m/S 674 mmHg 53%
    11:00 +32°C° 0 mm 0 m/S 675 mmHg 42%
    12:00 +34°C° 0 mm 1 m/S 674 mmHg 37%
    13:00 +34°C° 0 mm 1 m/S 673 mmHg 32%
    14:00 +36°C° 0 mm 2 m/S 672 mmHg 27%
    15:00 +35°C° 0 mm 2 m/S 672 mmHg 27%
    16:00 +35°C° 0 mm 2 m/S 671 mmHg 27%
    17:00 +35°C° 0 mm 2 m/S 671 mmHg 27%
    18:00 +32°C° 0 mm 2 m/S 671 mmHg 32%
    19:00 +29°C° 0 mm 1 m/S 671 mmHg 36%
    20:00 +27°C° 0 mm 1 m/S 671 mmHg 41%
    21:00 +26°C° 0 mm 1 m/S 671 mmHg 43%
    22:00 +26°C° 0 mm 1 m/S 672 mmHg 44%
    23:00 +25°C° 0 mm 1 m/S 672 mmHg 45%

    24 Januar, Donnerstag

    Zeit Temperatur Niederschläge Wind Luftdruck Luftfeuchtigkeit
    00:00 +24°C° 0 mm 2 m/S 672 mmHg 54%
    01:00 +23°C° 0 mm 2 m/S 672 mmHg 62%
    02:00 +21°C° 0 mm 3 m/S 671 mmHg 70%
    03:00 +21°C° 0 mm 2 m/S 671 mmHg 76%
    04:00 +20°C° 0 mm 2 m/S 671 mmHg 82%
    05:00 +20°C° 0 mm 2 m/S 671 mmHg 88%
    06:00 +21°C° 0 mm 2 m/S 672 mmHg 83%
    07:00 +23°C° 0 mm 2 m/S 672 mmHg 77%
    08:00 +22°C° 0 mm 3 m/S 673 mmHg 72%
    09:00 +26°C° 0 mm 3 m/S 673 mmHg 64%
    10:00 +28°C° 0 mm 3 m/S 674 mmHg 56%
    11:00 +31°C° 0 mm 3 m/S 674 mmHg 47%
    12:00 +34°C° 0 mm 2 m/S 674 mmHg 41%
    13:00 +35°C° 0 mm 1 m/S 674 mmHg 35%
    14:00 +35°C° 0 mm 0 m/S 674 mmHg 29%
    15:00 +36°C° 0 mm 1 m/S 673 mmHg 28%
    16:00 +36°C° 0 mm 2 m/S 672 mmHg 28%
    17:00 +36°C° 0 mm 2 m/S 671 mmHg 28%
    18:00 +32°C° 0 mm 2 m/S 671 mmHg 34%
    19:00 +30°C° 0 mm 2 m/S 671 mmHg 41%
    20:00 +27°C° 0 mm 2 m/S 671 mmHg 47%
    21:00 +26°C° 0 mm 2 m/S 672 mmHg 50%
    22:00 +26°C° 0 mm 2 m/S 672 mmHg 52%
    23:00 +25°C° 0 mm 2 m/S 673 mmHg 55%

    25 Januar, Freitag

    Zeit Temperatur Niederschläge Wind Luftdruck Luftfeuchtigkeit
    00:00 +24°C° 0 mm 2 m/S 673 mmHg 57%
    01:00 +24°C° 0 mm 2 m/S 672 mmHg 60%
    02:00 +23°C° 0 mm 2 m/S 672 mmHg 62%
    03:00 +21°C° 0 mm 2 m/S 672 mmHg 69%
    04:00 +22°C° 0 mm 1 m/S 672 mmHg 76%
    05:00 +21°C° 0 mm 1 m/S 672 mmHg 82%
    06:00 +22°C° 0 mm 1 m/S 672 mmHg 79%
    07:00 +23°C° 0 mm 1 m/S 673 mmHg 76%
    08:00 +25°C° 0 mm 1 m/S 674 mmHg 72%
    09:00 +27°C° 0 mm 2 m/S 674 mmHg 62%
    10:00 +30°C° 0 mm 2 m/S 675 mmHg 53%
    11:00 +34°C° 0 mm 2 m/S 675 mmHg 43%
    12:00 +35°C° 0 mm 2 m/S 675 mmHg 38%
    13:00 +36°C° 0 mm 2 m/S 674 mmHg 33%
    14:00 +37°C° 0 mm 3 m/S 673 mmHg 28%
    15:00 +37°C° 0 mm 3 m/S 673 mmHg 28%
    16:00 +36°C° 0 mm 3 m/S 672 mmHg 28%
    17:00 +36°C° 0 mm 2 m/S 672 mmHg 28%
    18:00 +34°C° 0 mm 2 m/S 672 mmHg 34%
    19:00 +30°C° 0 mm 2 m/S 672 mmHg 39%
    20:00 +28°C° 0 mm 2 m/S 672 mmHg 45%
    21:00 +27°C° 0 mm 2 m/S 672 mmHg 46%
    22:00 +27°C° 0 mm 2 m/S 673 mmHg 48%
    23:00 +26°C° 0 mm 1 m/S 673 mmHg 49%
    Mehr zeigen